EB5EEV-10 Weather Reports


Display with metric or nautical units.
time (UTC)temp
F
wind
direction
speed
MPH
gust
MPH
rain 1hr
in
rain 24hr
in
rain mn
in
humidity
%
barometer
mb
20260507133015 68 129 9.0 10.0 0.00 0.00 0.00 7 1008.0
20260507131228 69 231 6.0 7.0 0.00 0.00 0.00 7 1008.1
20260507125419 69 233 2.0 2.0 0.00 0.00 0.00 7 1008.0
20260507123542 69 333 5.0 5.0 0.00 0.00 0.00 7 1008.2
20260507121802 69 236 1.0 2.0 0.00 0.00 0.00 7 1008.2
20260507120114 68 221 6.0 6.0 0.00 0.00 0.00 7 1008.5
20260507114341 68 0 0.0 3.0 0.00 0.00 0.00 7 1008.9
20260507105933 68 225 1.0 3.0 0.00 0.00 0.00 7 1009.0
20260507104024 67 111 3.0 6.0 0.00 0.00 0.00 7 1009.0
20260507102107 67 0 0.0 5.0 0.00 0.00 0.00 7 1009.1
20260507100232 67 170 4.0 7.0 0.00 0.00 0.00 7 1009.3
20260507094352 66 135 1.0 3.0 0.00 0.00 0.00 7 1009.3
20260507085130 65 162 1.0 3.0 0.00 0.00 0.00 7 1009.4
20260507083257 0 0 0.0 0.0 0.00 0.00 0.00 100 1009.2
20260507081557 0 0 0.0 0.0 0.00 0.00 0.00 100 1009.1
20260507075815 0 0 0.0 0.0 0.00 0.00 0.00 100 1009.1
20260507070538 0 0 0.0 0.0 0.00 0.00 0.00 100 1008.8
20260507062852 0 0 0.0 0.0 0.00 0.00 0.00 100 1008.9
20260507061032 0 0 0.0 0.0 0.00 0.00 0.00 100 1008.8
20260507055231 0 0 0.0 0.0 0.00 0.00 0.00 100 1008.6
20260507053542 0 0 0.0 0.0 0.00 0.00 0.00 100 1008.3
20260507043957 0 0 0.0 0.0 0.00 0.00 0.00 100 1008.2
20260507040442 0 0 0.0 0.0 0.00 0.00 0.00 100 1008.3
20260507034727 0 0 0.0 0.0 0.00 0.00 0.00 100 1008.2
20260507033011 0 0 0.0 0.0 0.00 0.00 0.00 100 1008.3
20260507025342 0 0 0.0 0.0 0.00 0.00 0.00 100 1008.6
20260507023656 0 0 0.0 0.0 0.00 0.00 0.00 100 1008.7
20260507021756 0 0 0.0 0.0 0.00 0.00 0.00 100 1008.6
20260507015858 0 0 0.0 0.0 0.00 0.00 0.00 100 1008.6
20260507014103 0 0 0.0 0.0 0.00 0.00 0.00 100 1008.5
20260507012412 0 0 0.0 0.0 0.00 0.00 0.00 100 1008.4
20260507010622 0 0 0.0 0.0 0.00 0.00 0.00 100 1008.5
20260507003013 0 0 0.0 0.0 0.00 0.00 0.00 100 1008.6
20260507001330 0 0 0.0 0.0 0.00 0.00 0.00 100 1008.8
20260506235557 0 0 0.0 0.0 0.00 0.00 0.00 100 1008.8
20260506233722 0 0 0.0 0.0 0.00 0.00 0.00 100 1009.1
20260506231946 0 0 0.0 0.0 0.00 0.00 0.00 100 1009.1
20260506230106 0 0 0.0 0.0 0.00 0.00 0.00 100 1009.2
20260506224257 0 0 0.0 0.0 0.00 0.00 0.00 100 1009.2
20260506222534 0 0 0.0 0.0 0.00 0.00 0.00 100 1009.2
20260506220852 0 0 0.0 0.0 0.00 0.00 0.00 100 1009.3
20260506214950 0 0 0.0 0.0 0.00 0.00 0.00 100 1009.3
20260506213118 0 0 0.0 0.0 0.00 0.00 0.00 100 1009.3
20260506211252 0 0 0.0 0.0 0.00 0.00 0.00 100 1009.0
20260506201958 0 0 0.0 0.0 0.00 0.00 0.00 100 1008.6
20260506200245 0 0 0.0 0.0 0.00 0.00 0.00 100 1008.3
20260506194517 0 0 0.0 0.0 0.00 0.00 0.00 100 1007.8
20260506192815 0 0 0.0 0.0 0.00 0.00 0.00 100 1007.7
20260506190955 0 0 0.0 0.0 0.00 0.00 0.00 100 1007.6
20260506185255 0 0 0.0 0.0 0.00 0.00 0.00 100 1007.6
20260506183507 0 0 0.0 0.0 0.00 0.00 0.00 100 1007.6
20260506181630 0 0 0.0 0.0 0.00 0.00 0.00 100 1007.5
20260506174157 0 0 0.0 0.0 0.00 0.00 0.00 100 1007.5
20260506172315 0 0 0.0 0.0 0.00 0.00 0.00 100 1007.6
20260506170602 0 0 0.0 0.0 0.00 0.00 0.00 100 1007.5
20260506155332 0 0 0.0 0.0 0.00 0.00 0.00 100 1007.7
20260506153557 68 0 0.0 0.0 0.00 0.00 0.00 6 1007.5
20260506144242 68 326 1.0 6.0 0.00 0.00 0.00 6 1007.8
20260506142323 68 318 3.0 3.0 0.00 0.00 0.00 6 1007.9
20260506140544 68 290 2.0 6.0 0.00 0.00 0.00 6 1008.1
20260506134752 67 273 1.0 2.0 0.00 0.00 0.00 6 1008.3